Showing default

LEMUR 2 MARACHE-FRAN, 63262

Orbit data source: Space-Track

LEMUR 2 MARACHE-FRAN, 63262 is a payload satellite owned by Spire (US) in SSO that was launched on Sat, 15 Mar 2025 UTC via an FALCON 9 launch vehicle from the Air Force Western Test Range (AFWTR). Payload-class satellites include a variety of spacecraft equipped with specific instruments for various scientific and technological missions. These include communications satellites like Starlink; space stations such as the ISS; scientific satellites like the Hubble; Earth observation satellites from companies like Planet Labs, Umbra, and HawkEye 360; GPS; miniature CubeSats for education and research; and military/defense satellites.

Loading next visibility...
Identifier
63262, 2025-052BE
Orbit
SSO
Country
Flag of USUS
Related business
Manufacturer
Spire/Glasgow
Mission
Operational Commercial Com/MetRO
Bus & Motor
CUBESAT 6U, Unknown motor
Mass
10 kg wet, 10 kg dry
Launch date (UTC)
2025-03-15 (7 months ago)
Launch vehicle
FALCON 9
Launch site
Air Force Western Test Range (AFWTR)
Object type
Payload
Rocket body
Debris
Shape & HBR
Box, 14.5 m
Radar Cross Section
0.080 m², Small (<0.1 m²)

Expand to show TLE details & history
Last TLE update: 18 hours ago

TLE from 18 hours ago
0 LEMUR 2 MARACHE-FRAN
1 63262U 25052BE  25286.97599057  .00010059  00000-0  90231-3 0  9990
2 63262  97.7102 178.7638 0003801 106.4787 253.6852 14.95944433 31890
Epoch: 2025-10-13T23:25Z
TLE epoch observation values (Epoch: 2025-10-13T23:25:25.585Z)
Latitude
-0.00002°
Longitude
164.63615°
Altitude
583.236 km
Speed
7.568 km/s
True Right ascension
11h 55m 03s
True Declination
0° 00' 00"
Sunlit
Object was in daylight at epoch
Visualization orbit readout
Latitude
Unknown
Longitude
Unknown
Altitude
Unknown
Speed
Unknown
Apparent Right ascension
Unknown
Apparent Declination
Unknown
Sunlit
N/A
Visualization observer readout
Local Sidereal Time
11:59:42
Azimuth
Unknown
Elevation
Unknown
Doppler factor
Unknown
Orbital elements
Apogee altitude
579.097 km
Perigee altitude
573.811 km
Semi-major axis
6,954.591 km
Eccentricity
0.00038
Inclination
97.7102°
RAAN
178.7638°
Arg. of periapsis
106.4787°
True anomaly
253.6434°
Mean anomaly
253.6852°
Eccentric anomaly
253.6643°
Mean motion
3.74228 °/min
Orbital period
96.2 mins
BSTAR
0.00090231
Loading maneuver chart data...
Computing Atmospheric mass density...
Loading historical data...
Loading historical data...
Loading historical data...
Loading historical data...
Loading historical data...
Loading historical data...
Loading historical data...

Documentation

Showing up to 5 results
|